Montgomery, NY

12:37 PM EDT on August 23, 2017 (GMT -0400)
Orange County

Weather History for KMGJ - March, 2013

Change the Weather History Date:

Saturday, March 23, 2013

  Actual Average (KSWF) Record (KSWF)
Temperature  
Mean Temperature 37 °F -  
Max Temperature 42 °F 47 °F 70 °F (1979)
Min Temperature 32 °F 29 °F 13 °F (1993)
Degree Days  
Heating Degree Days 28    
Moisture  
Dew Point 19 °F    
Average Humidity 50    
Maximum Humidity 59    
Minimum Humidity 38    
Precipitation  
Precipitation 0.00 in - - ()
Sea Level Pressure  
Sea Level Pressure 29.85 in    
Wind  
Wind Speed 12 mph (WNW)    
Max Wind Speed 21 mph    
Max Gust Speed 33 mph    
Visibility 10 miles    
Events      
Averages and records for this station are not official NWS values.
T = Trace of Precipitation, MM = Missing Value Source: NWS Daily Summary

Daily Weather History Graph

Daily Weather History Graph

Search for Another Location

Airport or City:

Trip Planner

Search our weather history database for the weather conditions in past years. The results will help you decide how hot, cold, wet, or windy it might be!

Date:

Astronomy

Mar. 23, 2013 Rise Set
Actual Time 6:54 AM EDT 7:12 PM EDT
Civil Twilight 6:27 AM EDT 7:40 PM EDT
Nautical Twilight 5:54 AM EDT 8:13 PM EDT
Astronomical Twilight 5:21 AM EDT 8:46 PM EDT
Moon 3:34 PM EDT 4:32 AM EDT
Length of Visible Light 13h 13m
Length of Day
12h 17m
Waxing Gibbous, 85% of the Moon is Illuminated
Mar 23
Waxing Gibbous
Mar 27
Full
Apr 3
Last Quarter
Apr 10
New
Apr 18
First Quarter

Hourly Weather History & Observations

Time (EDT) Temp. Windchill Dew Point Humidity Pressure Visibility Wind Dir Wind Speed Gust Speed Precip Events Conditions
12:54 AM 33.1 °F 23.9 °F 19.0 °F 56% 29.86 in 10.0 mi West 12.7 mph - N/A   Clear
1:54 AM 33.1 °F 26.9 °F 19.0 °F 56% 29.84 in 10.0 mi West 6.9 mph - N/A   Partly Cloudy
2:54 AM 32.0 °F 24.8 °F 19.0 °F 59% 29.84 in 10.0 mi West 8.1 mph - N/A   Clear
3:54 AM 32.0 °F 24.8 °F 19.0 °F 59% 29.84 in 10.0 mi West 8.1 mph - N/A   Overcast
4:54 AM 32.0 °F 25.6 °F 19.0 °F 59% 29.84 in 10.0 mi West 6.9 mph - N/A   Mostly Cloudy
5:54 AM 33.1 °F 26.1 °F 19.9 °F 59% 29.84 in 10.0 mi WSW 8.1 mph - N/A   Overcast
6:54 AM 33.1 °F 26.9 °F 19.9 °F 59% 29.86 in 10.0 mi West 6.9 mph - N/A   Overcast
7:54 AM 34.0 °F 25.5 °F 19.9 °F 56% 29.86 in 10.0 mi WSW 11.5 mph - N/A   Mostly Cloudy
8:54 AM 34.0 °F 25.0 °F 21.0 °F 59% 29.84 in 10.0 mi West 12.7 mph - N/A   Mostly Cloudy
9:54 AM 36.0 °F 27.5 °F 21.0 °F 55% 29.83 in 10.0 mi West 12.7 mph 18.4 mph N/A   Overcast
10:54 AM 37.0 °F 28.5 °F 21.0 °F 52% 29.83 in 10.0 mi WNW 13.8 mph 33.4 mph N/A   Overcast
11:54 AM 39.0 °F 29.3 °F 21.0 °F 49% 29.84 in 10.0 mi WNW 19.6 mph 27.6 mph N/A   Overcast
12:54 PM 39.0 °F 29.9 °F 19.9 °F 46% 29.84 in 10.0 mi West 17.3 mph 26.5 mph N/A   Overcast
1:54 PM 39.9 °F 31.8 °F 19.0 °F 43% 29.83 in 10.0 mi WNW 15.0 mph 24.2 mph N/A   Overcast
2:54 PM 42.1 °F 34.2 °F 19.0 °F 40% 29.82 in 10.0 mi NW 16.1 mph 25.3 mph N/A   Overcast
3:54 PM 42.1 °F 34.2 °F 19.0 °F 40% 29.81 in 10.0 mi NW 16.1 mph 31.1 mph N/A   Mostly Cloudy
4:54 PM 41.0 °F 31.6 °F 17.1 °F 38% 29.82 in 10.0 mi WNW 20.7 mph 27.6 mph N/A   Overcast
5:54 PM 41.0 °F 33.1 °F 19.0 °F 41% 29.83 in 10.0 mi NNW 15.0 mph 23.0 mph N/A   Overcast
6:54 PM 39.0 °F 29.3 °F 17.1 °F 41% 29.85 in 10.0 mi NW 19.6 mph 27.6 mph N/A   Scattered Clouds
7:54 PM 37.9 °F 28.2 °F 17.1 °F 43% 29.88 in 10.0 mi WNW 18.4 mph 31.1 mph N/A   Overcast
8:54 PM 37.0 °F 28.9 °F 18.0 °F 46% 29.90 in 10.0 mi WNW 12.7 mph 23.0 mph N/A   Overcast
9:54 PM 37.0 °F 29.3 °F 17.1 °F 44% 29.91 in 10.0 mi NW 11.5 mph 24.2 mph N/A   Overcast
10:54 PM 35.1 °F 32.2 °F 17.1 °F 48% 29.91 in 10.0 mi Variable 3.5 mph - N/A   Mostly Cloudy
11:54 PM 32.0 °F 28.7 °F 16.0 °F 52% 29.92 in 10.0 mi SW 3.5 mph - N/A   Scattered Clouds